Weather History for KLGU - December, 2012

Change the Weather History Date:

Saturday, December 22, 2012

  Actual Average (WUND) Record (WUND)
Temperature  
Mean Temperature 18 °F -  
Max Temperature 28 °F - - (-1)
Min Temperature 9 °F - - (-1)
Degree Days  
Heating Degree Days 46    
Moisture  
Dew Point 16 °F    
Average Humidity 82    
Maximum Humidity 92    
Minimum Humidity 69    
Precipitation  
Precipitation 0.00 in - - ()
Sea Level Pressure  
Sea Level Pressure 30.10 in    
Wind  
Wind Speed 1 mph (SSW)    
Max Wind Speed 7 mph    
Max Gust Speed -    
Visibility 7 miles    
Events      
Averages and records for this station are not official NWS values.
T = Trace of Precipitation, MM = Missing Value Source: NWS Daily Summary

Daily Weather History Graph

Daily Weather History Graph

Search for Another Location

Airport or City:

Trip Planner

Search our weather history database for the weather conditions in past years. The results will help you decide how hot, cold, wet, or windy it might be!

Date:

Astronomy

Dec. 22, 2012 Rise Set
Actual Time 7:52 AM MST 5:00 PM MST
Civil Twilight 7:20 AM MST 5:32 PM MST
Nautical Twilight 6:45 AM MST 6:07 PM MST
Astronomical Twilight 6:11 AM MST 6:41 PM MST
Moon 1:22 PM MST (12/22) 2:38 AM MST (12/22)
Length of Visible Light 10h 11m
Length of Day
9h 08m
Waxing Gibbous, 74% of the Moon is Illuminated
Dec 22
Waxing Gibbous
Dec 28
Full
Jan 4
Last Quarter
Jan 11
New
Jan 18
First Quarter

Hourly Weather History & Observations

Time (MST) Temp. Windchill Dew Point Humidity Pressure Visibility Wind Dir Wind Speed Gust Speed Precip Events Conditions
12:51 AM 14.0 °F - 10.9 °F 88% 30.22 in 6.0 mi Calm Calm - N/A   Clear
1:51 AM 12.9 °F - 10.0 °F 88% 30.23 in 7.0 mi Calm Calm - N/A   Clear
3:51 AM 12.9 °F 5.2 °F 8.1 °F 81% 30.21 in 8.0 mi NE 4.6 mph - N/A   Clear
5:51 AM 10.0 °F - 7.0 °F 87% 30.20 in 7.0 mi Calm Calm - N/A   Clear
6:51 AM 9.0 °F - 6.1 °F 88% 30.20 in 6.0 mi Calm Calm - N/A   Clear
7:51 AM 9.0 °F - 6.1 °F 88% 30.19 in 6.0 mi Calm Calm - N/A   Clear
8:51 AM 10.9 °F - 9.0 °F 92% 30.19 in 5.0 mi Calm Calm - N/A   Clear
9:51 AM 14.0 °F - 10.9 °F 88% 30.18 in 5.0 mi Calm Calm - N/A   Clear
10:51 AM 17.1 °F 10.0 °F 14.0 °F 88% 30.14 in 5.0 mi WSW 4.6 mph - N/A   Clear
11:51 AM 21.0 °F - 17.1 °F 85% 30.09 in 6.0 mi Calm Calm - N/A   Clear
12:51 PM 26.1 °F - 19.0 °F 75% 30.04 in 8.0 mi Calm Calm - N/A   Clear
1:51 PM 28.9 °F - 19.9 °F 69% 30.01 in 9.0 mi Calm Calm - N/A   Clear
2:51 PM 28.9 °F - 21.9 °F 75% 29.98 in 8.0 mi Calm Calm - N/A   Partly Cloudy
3:51 PM 28.0 °F - 19.9 °F 72% 29.99 in 9.0 mi Calm Calm - N/A   Clear
4:51 PM 26.1 °F 21.9 °F 19.0 °F 75% 30.00 in 9.0 mi SW 3.5 mph - N/A   Scattered Clouds
5:51 PM 26.1 °F 21.9 °F 19.0 °F 75% 29.99 in 10.0 mi South 3.5 mph - N/A   Overcast
7:51 PM 28.0 °F - 21.9 °F 78% 29.99 in 8.0 mi Calm Calm - N/A   Overcast
8:51 PM 27.0 °F 20.5 °F 21.9 °F 81% 30.04 in 8.0 mi North 5.8 mph - N/A   Overcast
9:51 PM 28.0 °F 22.8 °F 21.9 °F 78% 30.03 in 10.0 mi NW 4.6 mph - N/A   Overcast
10:51 PM 28.0 °F 24.2 °F 23.0 °F 81% 30.05 in 8.0 mi SSW 3.5 mph - N/A   Overcast
11:51 PM 28.9 °F 21.9 °F 24.1 °F 82% 30.08 in 8.0 mi SE 6.9 mph - N/A   Overcast